KBJCKEGE

Guest
Details From KBJC - Jeffco
To KEGE - Eagle Co Rgnl
Flight Number -
Tags Generated
Created
Modified
Stats Distance 85 nm / 157 km
Max Altitude 0 ft / 0 m
Waypoints 2
Social Downloads 0
Likes 0
Share VATSIM

Download

Looking for another format? Having issues loading an existing format? Contact us
Advertisement - Login to hide

Notes

Generated

Route

KBJC KEGE

ID Type Via Altitude Latitude Longitude Leg Dist Tot Dist Heading (true) Name
O KBJC APT - 0 ft / 0 m 39.90587˚ -105.11809˚ - 0 nm - Rocky Mountain Metropolitan Airport
O KEGE APT - 0 ft / 0 m 39.64472˚ -106.92333˚ 84 nm 84 nm 260° / 259° EAGLE CO RGNL

Altitude Profile

Advertisement - Login to hide

KBJC

Details ICAO KBJC (BJC)
Name Rocky Mountain Metropolitan Airport
Region United States
Timezone America/Denver (UTC-6.0)
Stats Elevation 5,670 ft / 1,728 m (AMSL)
Location 39.909018° -105.116968°
Runways 3
Magnetic Variation 8.253° E

METAR

KBJC 210935Z AUTO 30006KT 7SM CLR 07/06 A3006 RMK AO2

Decode

TAF

TAF AMD KBJC 210739Z 2108/2206 34005KT 5SM BR FEW080 BKN150 FM211400 VRB04KT P6SM FEW080 SCT120 BKN220 FM211700 09006KT P6SM FEW120 SCT220 FM212300 25010KT P6SM SCT080 BKN140

Decode

Departure Runways

ID Width Length Bearing (true) Bearing (mag) Surface Threshold Offset Overrun Length
02 75 ft / 23 m 3,601 ft / 1,098 m 34.18° 25.93° Asphalt 0 ft / 0 m 0 ft / 0 m
11L 100 ft / 30 m 8,990 ft / 2,740 m 124.39° 116.14° Asphalt 0 ft / 0 m 0 ft / 0 m
11R 75 ft / 23 m 6,995 ft / 2,132 m 124.39° 116.14° Asphalt 0 ft / 0 m 0 ft / 0 m
20 75 ft / 23 m 3,601 ft / 1,098 m 214.18° 205.93° Asphalt 0 ft / 0 m 0 ft / 0 m
29L 75 ft / 23 m 6,995 ft / 2,132 m 304.40° 296.15° Asphalt 0 ft / 0 m 0 ft / 0 m
29R 100 ft / 30 m 8,990 ft / 2,740 m 304.41° 296.16° Asphalt 0 ft / 0 m 0 ft / 0 m

KEGE

Details ICAO KEGE (EGE)
Name EAGLE CO RGNL
Region United States
Timezone America/Denver (UTC-6.0)
Stats Elevation 6,540 ft / 1,993 m (AMSL)
Location 39.642567° -106.917696°
Runways 1
Magnetic Variation 9.120° E

METAR

KEGE 210856Z AUTO 08003KT 10SM CLR 04/M01 A3014 RMK AO2 SLP177 T00391006 50001

Decode

TAF

TAF KEGE 210530Z 2106/2206 VRB03KT P6SM FEW250 FM211900 22005KT P6SM FEW100 SCT250 FM212100 24010KT P6SM FEW110 SCT250 FM220000 20009KT P6SM SCT100 BKN200 AMD LTD TO CLD VIS AND WIND TIL 211300

Decode

Destination Runways

ID Width Length Bearing (true) Bearing (mag) Surface Threshold Offset Overrun Length
07 150 ft / 46 m 7,981 ft / 2,433 m 81.90° 72.78° Asphalt 0 ft / 0 m 0 ft / 0 m
25 150 ft / 46 m 7,981 ft / 2,433 m 261.92° 252.80° Asphalt 0 ft / 0 m 0 ft / 0 m

Approach Navaids

Runway Type Ident Frequency Range Bearing (true) Bearing (mag) Slope Elevation
25 Localiser IESJ 109.75 MHz 18 nm / 33 km 258.91° 249.79° - 6,461 ft / 1,969 m (AMSL)
25 DME IESJ 109.75 MHz 18 nm / 33 km - - - 6,473 ft / 1,973 m (AMSL)

Popular Alternatives